Sigfox identifier Datetime Temperature Humidity SNR
003BFBB8 2018-10-09 08:38:55 20.5 39 17.8
003BFBB8 2018-10-09 07:37:52 20.5 39 17.8
003BFBB8 2018-10-09 06:36:49 20.5 39 17.9
003BFBB8 2018-10-09 05:35:46 20.5 39 17.8
003BFBB8 2018-10-09 01:31:38 20.5 39 17.8
003BFBB8 2018-10-09 00:30:28 20.5 39 13.2
003BFBB8 2018-10-08 23:29:24 20.5 39 13.2
003BFBB8 2018-10-08 22:28:20 20.5 39 13.1
003BFBB8 2018-10-08 21:27:17 20.5 39 13.2
003BFBB8 2018-10-08 20:26:15 20.5 39 13.1
003BFBB8 2018-10-08 19:25:07 20.5 39 12.8
003BFBB8 2018-10-08 18:24:07 20.5 39 12.5
003BFBB8 2018-10-08 17:23:01 20.4 39 12.5
003BFBB8 2018-10-08 16:21:57 20.3 39 12.5
003BFBB8 2018-10-08 14:19:47 20.3 39 12.5
003BFBB8 2018-10-08 12:17:40 20.3 39 12.5
003BFBB8 2018-10-08 09:14:29 20.3 39 12.5
003BFBB8 2018-10-08 08:13:27 20.3 39 12.5
003BFBB8 2018-10-08 06:11:25 20.3 39 12.5
003BFBB8 2018-10-08 05:10:18 20.3 39 12.2
003BFBB8 2018-10-08 04:09:13 20.3 39 12.1
003BFBB8 2018-10-08 03:08:06 20.3 39 12.1
003BFBB8 2018-10-08 02:07:00 20.3 39 12.1
003BFBB8 2018-10-08 01:05:53 20.5 39 11.9
003BFBB8 2018-10-08 00:04:51 20.5 39 11.6
003BFBB8 2018-10-07 23:03:47 20.5 39 11.8
003BFBB8 2018-10-07 22:02:43 20.5 39 11.6
003BFBB8 2018-10-07 21:01:34 20.5 39 11.6
003BFBB8 2018-10-07 20:00:33 20.5 39 11.5
003BFBB8 2018-10-07 18:59:27 20.5 39 11.3
003BFBB8 2018-10-07 17:58:25 20.5 39 11.1
003BFBB8 2018-10-07 14:55:08 20.5 39 11.4
003BFBB8 2018-10-07 13:54:02 20.6 39 11.1
003BFBB8 2018-10-07 12:52:55 20.6 39 10.8
003BFBB8 2018-10-07 11:51:50 20.6 40 11
003BFBB8 2018-10-07 10:50:47 20.7 40 11
003BFBB8 2018-10-07 09:49:40 20.6 40 11.2
003BFBB8 2018-10-07 08:48:36 20.7 40 11.1
003BFBB8 2018-10-07 06:46:26 20.7 40 11.4
003BFBB8 2018-10-07 05:45:17 20.7 40 11.7
003BFBB8 2018-10-07 04:44:11 20.7 40 11.8
003BFBB8 2018-10-07 03:43:05 20.7 40 11.6
003BFBB8 2018-10-07 02:41:57 20.7 40 11.8
003BFBB8 2018-10-07 01:40:56 20.7 40 11.6
003BFBB8 2018-10-07 00:39:51 20.7 40 11.8
003BFBB8 2018-10-06 23:38:42 20.7 40 11.7
003BFBB8 2018-10-06 22:37:31 20.7 40 11.5
003BFBB8 2018-10-06 21:36:23 20.8 40 11.6
003BFBB8 2018-10-06 19:34:09 20.8 40 11.6
003BFBB8 2018-10-06 18:33:06 20.8 40 11.8
003BFBB8 2018-10-06 17:31:58 20.8 40 11.7
003BFBB8 2018-10-06 16:30:53 20.9 40 11.7
003BFBB8 2018-10-06 14:28:39 20.9 40 11.6
003BFBB8 2018-10-06 13:27:30 20.9 40 11.6
003BFBB8 2018-10-06 12:26:28 21 40 11.6
003BFBB8 2018-10-06 11:25:21 21 40 11.6
003BFBB8 2018-10-06 10:24:13 21 40 11.5
003BFBB8 2018-10-06 09:23:07 21 40 11.5
003BFBB8 2018-10-06 08:22:02 21 40 11.5
003BFBB8 2018-10-06 06:19:51 21 40 11.3
003BFBB8 2018-10-06 05:18:48 21 40 11.5
003BFBB8 2018-10-06 04:17:45 21 40 11.3
003BFBB8 2018-10-06 03:16:40 21 40 11.1
003BFBB8 2018-10-06 02:15:40 21 40 11.8
003BFBB8 2018-10-06 01:14:31 21 40 11.8
003BFBB8 2018-10-06 00:13:26 21.1 40 11.8
003BFBB8 2018-10-05 23:12:24 21.1 39 11.9
003BFBB8 2018-10-05 22:11:22 21.1 39 11.8
003BFBB8 2018-10-05 21:10:17 21.1 39 12
003BFBB8 2018-10-05 20:09:11 21.1 39 11.9
003BFBB8 2018-10-05 19:08:08 21.1 39 11.8
003BFBB8 2018-10-05 18:07:04 21 39 11.9
003BFBB8 2018-10-05 17:06:01 21 39 12.1
003BFBB8 2018-10-05 14:02:48 21 38 12.2
003BFBB8 2018-10-05 12:00:39 21 38 12
003BFBB8 2018-10-05 10:59:33 20.7 33 12.1
003BFBB8 2018-10-05 06:55:14 20.6 33 12.3
003BFBB8 2018-10-05 05:54:04 20.6 33 12.4
003BFBB8 2018-10-05 04:53:04 20.7 33 12.6
003BFBB8 2018-10-05 03:51:58 20.7 33 12.8
003BFBB8 2018-10-05 02:50:47 20.7 33 13
003BFBB8 2018-10-05 01:49:39 20.7 33 13.2
003BFBB8 2018-10-05 00:48:34 20.7 33 13.6
003BFBB8 2018-10-04 23:47:25 20.7 33 14
003BFBB8 2018-10-04 21:45:19 20.7 32 14.6
003BFBB8 2018-10-04 18:41:53 20.9 32 15
003BFBB8 2018-10-04 16:39:42 20.8 31 16
003BFBB8 2018-10-04 14:37:27 20.9 31 17.4
003BFBB8 2018-10-04 13:36:15 21 31 14.8
003BFBB8 2018-10-04 11:34:03 20.5 40 0